Miscellaneous Local Product
Issued by NWS Hastings, NE

Home | Current Version | Previous Version | Graphics & Text | Print | Product List | Glossary On
Versions: 1 2 3 4 5 6 7 8 9 10 11 12 13 14 15 16 17 18 19 20 21 22 23 24 25 26 27 28 29 30 31 32 33 34 35 36 37 38 39 40 41 42 43 44 45 46 47 48 49 50
000
AXUS43 KGID 281202
MISGRI

GID CWA HOURLY WEATHER ROUNDUP
NATIONAL WEATHER SERVICE HASTINGS NE
700 AM CDT THU APR 28 2016

NOTE: "FAIR" INDICATES FEW OR NO CLOUDS BELOW 12,000 FEET WITH NO
SIGNIFICANT WEATHER AND/OR OBSTRUCTIONS TO VISIBILITY.

...SOUTH CENTRAL NEBRASKA...

CITY           SKY/WX    TMP DP  RH WIND       PRES   REMARKS
GRAND ISLAND   CLOUDY    40  38  93 NW16      29.88R WCI  31
HASTINGS       CLOUDY    38  36  92 NW18      29.87S WCI  28
KEARNEY        MOCLDY    37  34  87 NW15G21   29.90R WCI  28
ORD            CLOUDY    39  38  96 NW15      29.87R WCI  31
YORK           CLOUDY    45  41  87 NW12G17   29.85R
AURORA         CLOUDY    41  40  97 NW16      29.86R FOG
LEXINGTON      CLOUDY    36  32  85 N18       29.92R WCI  26
HOLDREGE       CLEAR     35  32  89 N14G21    29.87F WCI  26
HEBRON         CLOUDY    42  38  87 NW15G22   29.85R

...NEBRASKA PANHANDLE...

CITY           SKY/WX    TMP DP  RH WIND       PRES   REMARKS
CHADRON        CLOUDY    33  30  88 N6        29.99R WCI  28
ALLIANCE       CLOUDY    30  27  88 N15       29.95R WCI  19
SCOTTSBLUFF    MOCLDY    32  28  85 CALM      29.98R
SIDNEY         CLEAR     26  23  88 NW9       29.96R WCI  17

...WESTERN AND NORTH CENTRAL NEBRASKA...

CITY           SKY/WX    TMP DP  RH WIND       PRES   REMARKS
VALENTINE      CLOUDY    33  32  96 NW16      29.94R WCI  23
AINSWORTH      CLOUDY    35  34  99 NW14      29.92R FOG     WCI  25
ONEILL         CLOUDY    41  40  95 N12       29.88R FOG
BROKEN BOW     MIX PCPN  35  33  92 NW14      29.90R WCI  26
IMPERIAL       CLEAR     31  28  89 NW8       29.95R WCI  23
NORTH PLATTE   CLEAR     31  28  89 NW10      29.95R WCI  22
MCCOOK         CLEAR     31  28  89 NW9       29.95R WCI  23

...EASTERN NEBRASKA...

CITY           SKY/WX    TMP DP  RH WIND       PRES   REMARKS
NORFOLK        LGT RAIN  42  39  89 N14       29.83R
SO SIOUX CITY  CLOUDY    44  41  89 NW9       29.81R FOG
TEKAMAH        LGT RAIN  45  43  93 NW13      29.79R
COLUMBUS       CLOUDY    43  34  70 NW12      29.84R
ALBION         CLOUDY    42  40  94 N9        29.85R
OMAHA EPPLEY   CLOUDY    47  45  93 NW14G20   29.77R
OFFUTT AFB     CLOUDY    48  48 100 NW14      29.75R
MILLARD        CLOUDY    47  45  93 NW10      29.77R
LINCOLN        CLOUDY    47  42  83 NW16      29.83R
NEBRASKA CITY  CLOUDY    47  46  97 NW17      29.79R
BEATRICE       CLOUDY    45  43  93 NW14      29.83R
FALLS CITY     CLOUDY    49  45  86 W14       29.80R

...NORTHERN KANSAS...

CITY           SKY/WX    TMP DP  RH WIND       PRES   REMARKS
GOODLAND       CLOUDY    36  32  85 NW9       29.95R WCI  29
HILL CITY      PTCLDY    38  32  79 NW9       29.97R WCI  31
NORTON         SUNNY     34  28  80 W13       29.93R WCI  25
PHILLIPSBURG   PTCLDY    36  32  87 CALM      29.94R
SMITH CENTER   CLEAR     34  32  93 NW12      29.91S WCI  25
BELOIT         CLEAR     36  32  87 W7        29.91R WCI  30
HAYS           CLOUDY    39  27  60 NW10      29.96R WCI  32
RUSSELL        PTCLDY    40  33  76 NW13      29.94R WCI  32
CONCORDIA      CLEAR     37  33  85 W10       29.88R WCI  30
SALINA         CLOUDY    43  35  73 W13       29.94R
TOPEKA         CLOUDY    46  39  76 W9        29.85R



USA.gov is the U.S. government's official web portal to all federal, state and local government web resources and services.